[[[{"header":{"parameterUnit":"kt","parameterCategory":2,"dx":1,"dy":1,"la1":30.253999710083008,"la2":30.299108505249023,"lo1":-89.0895004272461,"lo2":-89.04439544677734,"nx":28,"ny":28,"refTime":"2022-10-24T21:00:00:Z","depth":"0","parameterNumber":2,"parameterNumberName":"U-component_of_CURRENTS"},"data":[-0.1957,-0.1963,-0.1999,-0.2088,-0.2185,-0.2275,-0.2341,-0.2407,-0.2524,-0.2719,-0.2958,-0.3243,-0.3429,-0.3938,-0.3908,-0.3731,-0.3517,-0.3465,-0.3345,-0.3408,-0.3394,-0.3381,-0.3399,-0.3509,-0.3509,-0.316,-0.3158,-0.3157,-0.2002,-0.2038,-0.2107,-0.2226,-0.2317,-0.2426,-0.2603,-0.2636,-0.2743,-0.2958,-0.309,-0.3442,-0.3576,-0.3669,-0.3754,-0.3656,-0.3475,-0.3507,-0.338,-0.328,-0.3385,-0.3408,-0.3521,-0.3521,-0.3521,-0.3521,-0.3521,-0.3521,-0.2095,-0.2118,-0.2192,-0.2281,-0.2402,-0.2552,-0.2606,-0.2774,-0.2918,-0.3056,-0.3219,-0.3336,-0.3516,-0.3585,-0.3559,-0.3518,-0.34,-0.3406,-0.3396,-0.3334,-0.3269,-0.3417,-0.3503,-0.3502,-0.3502,-0.3502,-0.3502,0,-0.2165,-0.2203,-0.2266,-0.2369,-0.2454,-0.259,-0.2714,-0.2809,-0.2983,-0.3077,-0.3209,-0.3281,-0.3383,-0.3428,-0.3458,-0.3407,-0.3228,-0.3295,-0.3263,-0.3234,-0.3202,-0.3112,-0.3178,-0.3227,-0.3225,-0.3224,-0.3223,-0.3222,-0.2226,-0.2251,-0.2385,-0.2435,-0.249,-0.2588,-0.2667,-0.2807,-0.2899,-0.3062,-0.3112,-0.3187,-0.3256,-0.3282,-0.3273,-0.3265,-0.3158,-0.3249,-0.32,-0.3204,-0.3198,-0.3142,-0.306,-0.3203,-0.3205,-0.3207,-0.3209,0,-0.2248,-0.2327,-0.24,-0.2519,-0.256,-0.2602,-0.2763,-0.2826,-0.2908,-0.3018,-0.3042,-0.31,-0.313,-0.312,-0.3087,-0.3073,-0.3058,-0.308,-0.3109,-0.3119,-0.3173,-0.3168,-0.3163,-0.3077,-0.3148,-0.3151,-0.3153,0,-0.2319,-0.2361,-0.2481,-0.2518,-0.2583,-0.2668,-0.2741,-0.2792,-0.2889,-0.2973,-0.2983,-0.3038,-0.3,-0.3022,-0.2985,-0.3017,-0.2968,-0.3001,-0.3006,-0.3007,-0.3017,-0.3,-0.2994,-0.2884,-0.2884,-0.2884,-0.2884,0,-0.2347,-0.2456,-0.2509,-0.2547,-0.2674,-0.2699,-0.2754,-0.2826,-0.2893,-0.2933,-0.2981,-0.2972,-0.2998,-0.2959,-0.2971,-0.2942,-0.2959,-0.2915,-0.2984,-0.2991,-0.3001,-0.3011,-0.3008,-0.2884,-0.2884,-0.2884,-0.2884,0,-0.2416,-0.2483,-0.2546,-0.2658,-0.2686,-0.2718,-0.2798,-0.2841,-0.2898,-0.2924,-0.2937,-0.2959,-0.2966,-0.2948,-0.2933,-0.2933,-0.2916,-0.2908,-0.2908,-0.3004,-0.3005,-0.3016,-0.3054,-0.3035,-0.2911,-0.2911,-0.2911,0,-0.2435,-0.2516,-0.2582,-0.264,-0.2693,-0.2763,-0.2795,-0.2847,-0.2882,-0.292,-0.292,-0.2946,-0.2932,-0.2946,-0.2926,-0.2939,-0.2919,-0.2922,-0.2902,-0.2902,-0.2982,-0.3017,-0.3029,-0.305,-0.2912,-0.2912,-0.2912,0,-0.2457,-0.2585,-0.2589,-0.2643,-0.2733,-0.2768,-0.2797,-0.2858,-0.289,-0.2902,-0.2931,-0.2923,-0.2938,-0.2935,-0.2942,-0.2926,-0.2923,-0.2919,-0.2918,-0.2914,-0.2901,-0.3005,-0.3014,-0.2901,-0.2901,-0.2901,-0.2913,0,-0.2571,-0.2608,-0.2613,-0.2705,-0.2739,-0.2765,-0.2841,-0.2864,-0.2891,-0.2926,-0.2934,-0.2936,-0.2944,-0.2937,-0.2942,-0.2934,-0.2935,-0.2924,-0.2899,-0.291,-0.2918,-0.2917,-0.2923,-0.2923,-0.2923,-0.2923,0,0,-0.2586,-0.2636,-0.2695,-0.2739,-0.2773,-0.2836,-0.287,-0.2895,-0.2944,-0.2957,-0.2953,-0.2962,-0.2947,-0.2944,-0.2955,-0.2946,-0.294,-0.2912,-0.2913,-0.2912,-0.2911,-0.2918,-0.2917,-0.2923,-0.2923,-0.2923,-0.2923,0,-0.2645,-0.2679,-0.2696,-0.2744,-0.2812,-0.2854,-0.2865,-0.2931,-0.2947,-0.296,-0.2978,-0.2977,-0.2946,-0.2949,-0.2941,-0.2947,-0.2912,-0.2934,-0.2928,-0.2913,-0.2912,-0.2911,-0.2917,-0.2917,-0.2923,-0.2923,-0.2923,0,-0.2709,-0.2761,-0.2766,-0.2835,-0.2867,-0.2907,-0.2941,-0.296,-0.2983,-0.2983,-0.2986,-0.2985,-0.2971,-0.2952,-0.2938,-0.2927,-0.2891,-0.2892,-0.2893,-0.2893,-0.2877,-0.2876,-0.2876,-0.2877,-0.2877,-0.2877,0,0,-0.2759,-0.2777,-0.2861,-0.2854,-0.2882,-0.2936,-0.2949,-0.2977,-0.2998,-0.2999,-0.2992,-0.2981,-0.2971,-0.2949,-0.2936,-0.2904,-0.2898,-0.2886,-0.2888,-0.289,-0.289,-0.2875,-0.2875,-0.2876,-0.2876,-0.2876,0,0,-0.2771,-0.286,-0.289,-0.2897,-0.294,-0.2992,-0.2981,-0.3015,-0.3017,-0.3011,-0.3,-0.2992,-0.2971,-0.2951,-0.2945,-0.291,-0.2904,-0.2904,-0.2906,-0.2909,-0.2911,-0.2916,-0.2907,0,0,0,0,0,-0.2871,-0.2857,-0.2884,-0.2895,-0.2952,-0.2988,-0.2994,-0.3017,-0.303,-0.3024,-0.3028,-0.2992,-0.2956,-0.2949,-0.2937,-0.2912,-0.2863,-0.2866,-0.2868,-0.2865,-0.2868,-0.287,0,0,0,0,0,0,-0.2876,-0.2889,-0.2885,-0.294,-0.2953,-0.2988,-0.3008,-0.3014,-0.303,-0.3031,-0.3,-0.2991,-0.2974,-0.2952,-0.2942,-0.2918,-0.2911,-0.2864,-0.2866,-0.2868,-0.2866,-0.2868,-0.287,0,0,0,0,0,-0.288,-0.2891,-0.2977,-0.2939,-0.2951,-0.2987,-0.3007,-0.3012,-0.3019,-0.3,-0.2995,-0.3037,-0.2974,-0.2963,-0.2945,-0.2924,-0.2917,-0.2914,-0.2865,-0.2867,-0.2868,-0.2867,0,0,0,0,0,0,-0.2883,-0.2887,-0.2979,-0.2984,-0.2938,-0.2985,-0.2993,-0.3011,-0.2986,-0.2984,-0.3035,-0.3035,-0.2975,-0.2966,-0.2958,-0.2928,-0.2923,-0.2919,-0.2917,-0.2867,-0.2868,-0.2869,0,0,0,0,0,0,-0.2882,-0.289,-0.2981,-0.2978,-0.2982,-0.2982,-0.2989,-0.2952,-0.2981,-0.3019,-0.3021,-0.3035,-0.296,-0.2968,-0.2962,-0.2905,-0.2927,-0.2923,-0.2921,-0.2919,-0.2868,-0.2868,0,0,0,0,0,0,-0.2885,-0.2893,-0.2977,-0.298,-0.2983,-0.3029,-0.2945,-0.2982,-0.3043,-0.3016,-0.3043,-0.3043,-0.296,-0.2955,-0.2964,-0.2911,-0.2906,-0.2927,-0.2924,-0.2923,-0.2921,0,0,0,0,0,0,0,-0.2888,-0.2836,-0.2959,-0.2981,-0.2984,-0.3024,-0.3025,-0.3025,-0.3043,-0.3043,-0.3043,-0.3043,-0.2946,-0.2943,-0.2939,-0.2915,0,0,-0.2927,-0.2925,0,0,0,0,0,0,0,0,-0.2833,-0.2835,-0.296,-0.2961,-0.2962,-0.3024,-0.3025,-0.3025,-0.3043,-0.3043,-0.3043,-0.3043,-0.2945,-0.2942,-0.2939,0,0,0,0,0,0,0,0,0,0,0,0,0,0,0,-0.296,-0.2961,0,-0.3024,-0.3025,-0.3025,-0.3043,-0.3043,-0.3043,-0.3043,-0.2945,-0.2942,-0.294,0,0,0,0,0,0,0,0,0,0,0,0,0,0,0,0,0,0,0,0,0,0,0,0,0,0,0,0,0,0,0,0,0,0,0,0,0,0,0,0,0,0,0,0,0,0,0,0,0,0,0,0,0,0,0,0,0,0,0,0,0,0,0,0,0,0,0,0,0]}],[{"header":{"parameterUnit":"kt","parameterCategory":2,"dx":1,"dy":1,"la1":30.253999710083008,"la2":30.299108505249023,"lo1":-89.0895004272461,"lo2":-89.04439544677734,"nx":28,"ny":28,"refTime":"2022-10-24T21:00:00:Z","depth":"0","parameterNumber":3,"parameterNumberName":"V-component_of_CURRENTS"},"data":[-0.0831,-0.0944,-0.0999,-0.1084,-0.1099,-0.1061,-0.1024,-0.1084,-0.1053,-0.0988,-0.0703,-0.042,0.0768,0.2417,0.3277,0.3297,0.3522,0.3462,0.3566,0.3203,0.3144,0.3088,0.3148,0.3657,0.3658,0.4136,0.4141,0.4145,-0.0796,-0.0866,-0.0953,-0.0999,-0.1026,-0.0989,-0.0912,-0.0907,-0.0931,-0.0891,-0.0821,-0.0066,0.0657,0.1351,0.2272,0.2567,0.2588,0.2679,0.2778,0.2815,0.2219,0.2252,0.2578,0.2578,0.2578,0.2577,0.2577,0.2577,-0.073,-0.0787,-0.084,-0.091,-0.0924,-0.0884,-0.0863,-0.0816,-0.0776,-0.0721,-0.0519,-0.0367,0.038,0.0991,0.1231,0.1836,0.1718,0.1975,0.2061,0.2076,0.2205,0.1493,0.17,0.1699,0.1698,0.1698,0.1697,0,-0.067,-0.0676,-0.0712,-0.0787,-0.0799,-0.0776,-0.0726,-0.0687,-0.0527,-0.0493,-0.038,-0.0273,0.0168,0.0556,0.0976,0.1134,0.1487,0.1343,0.1608,0.1856,0.1909,0.2025,0.1262,0.1426,0.1424,0.1422,0.142,0.1419,-0.0583,-0.0613,-0.0635,-0.0667,-0.0662,-0.0659,-0.064,-0.0526,-0.0461,-0.0297,-0.0251,-0.0052,0.0086,0.046,0.0773,0.1049,0.1199,0.1272,0.1272,0.1518,0.1645,0.1683,0.1756,0.139,0.1394,0.1397,0.1399,0,-0.0539,-0.0526,-0.0562,-0.0542,-0.0538,-0.0555,-0.048,-0.0448,-0.0342,-0.0258,-0.0221,-0.0034,0.0162,0.0369,0.0598,0.0741,0.1085,0.0996,0.1033,0.1079,0.146,0.1546,0.1854,0.1966,0.118,0.1182,0.1185,0,-0.0456,-0.0474,-0.0456,-0.0471,-0.0494,-0.0423,-0.0403,-0.0346,-0.0236,-0.0176,-0.0044,0.0028,0.0235,0.0383,0.0514,0.0733,0.0713,0.0869,0.0912,0.096,0.097,0.1248,0.1345,0.0832,0.0831,0.083,0.0829,0,-0.039,-0.038,-0.0409,-0.04,-0.0352,-0.034,-0.0306,-0.0206,-0.0157,-0.0046,0.0003,0.0141,0.0222,0.035,0.0521,0.0509,0.0711,0.0719,0.0862,0.0867,0.0986,0.0999,0.1318,0.0828,0.0828,0.0827,0.0827,0,-0.0305,-0.031,-0.0336,-0.0305,-0.0295,-0.0282,-0.0216,-0.0176,-0.0059,-0.0003,0.0086,0.0176,0.0283,0.0314,0.0493,0.0454,0.0541,0.0619,0.0626,0.073,0.0763,0.0916,0.0975,0.1239,0.0703,0.0702,0.0701,0,-0.0259,-0.0275,-0.0224,-0.0233,-0.0238,-0.0157,-0.0125,-0.0061,0.0007,0.007,0.0171,0.0241,0.0291,0.0329,0.0389,0.0506,0.0552,0.0494,0.0665,0.067,0.073,0.076,0.0836,0.0946,0.0684,0.0686,0.0687,0,-0.0212,-0.0171,-0.0168,-0.0164,-0.0098,-0.0085,-0.0047,0.0012,0.0042,0.0112,0.0159,0.0257,0.0309,0.0358,0.0424,0.0476,0.0527,0.0514,0.0519,0.055,0.0655,0.0728,0.0746,0.0562,0.0563,0.0564,0.0674,0,-0.0153,-0.0136,-0.0137,-0.0088,-0.0062,-0.0056,0.0013,0.0046,0.009,0.0145,0.0217,0.0305,0.0385,0.0406,0.0454,0.0506,0.0525,0.0553,0.0576,0.0569,0.0618,0.0627,0.053,0.0531,0.0532,0.0533,0,0,-0.0113,-0.0093,-0.0029,-0.0018,-0.0001,0.0067,0.0067,0.0114,0.0185,0.0216,0.0233,0.0364,0.0423,0.0496,0.0497,0.0525,0.0563,0.0522,0.0566,0.0569,0.0573,0.0618,0.0626,0.0535,0.0535,0.0536,0.0536,0,-0.0082,-0.0034,-0.0028,0.0003,0.0049,0.0091,0.0091,0.0154,0.019,0.0234,0.0303,0.0359,0.0434,0.0496,0.0536,0.0536,0.0588,0.0544,0.0509,0.0573,0.0574,0.0576,0.0621,0.0628,0.0539,0.0539,0.0538,0,-0.0035,0.0007,0.0019,0.0077,0.0112,0.013,0.0181,0.0201,0.0222,0.0306,0.0348,0.0407,0.0484,0.0527,0.0549,0.0559,0.0613,0.0588,0.0584,0.0587,0.0655,0.0656,0.0657,0.0643,0.0643,0.0643,0,0,-0.0008,0.0017,0.0078,0.0088,0.0105,0.0166,0.0185,0.022,0.0275,0.0301,0.0358,0.042,0.0478,0.0506,0.0561,0.0592,0.0637,0.0597,0.0593,0.0588,0.0588,0.0655,0.0656,0.0643,0.0643,0.0643,0,0,0.0002,0.0074,0.0102,0.012,0.0157,0.0223,0.0228,0.0264,0.0321,0.0328,0.0404,0.0423,0.0467,0.0507,0.05,0.056,0.0585,0.0588,0.0526,0.0521,0.0516,0.0503,0.0546,0,0,0,0,0,0.0064,0.0063,0.0088,0.0098,0.0175,0.021,0.0222,0.0273,0.0295,0.0302,0.0367,0.0398,0.0522,0.0517,0.0532,0.0527,0.0643,0.0643,0.0643,0.0573,0.0567,0.0561,0,0,0,0,0,0,0.0069,0.0082,0.0087,0.015,0.0168,0.0211,0.0256,0.0271,0.0295,0.0302,0.0386,0.04,0.0453,0.0513,0.0526,0.052,0.0542,0.0643,0.0643,0.0643,0.0571,0.0566,0.0561,0,0,0,0,0,0.0072,0.0083,0.0192,0.0152,0.0167,0.0232,0.0257,0.027,0.0297,0.037,0.0386,0.0331,0.0452,0.0467,0.0521,0.0512,0.0533,0.0538,0.0643,0.0643,0.0643,0.0568,0,0,0,0,0,0,0.0075,0.0106,0.0197,0.0203,0.0152,0.0231,0.0246,0.0268,0.0366,0.0379,0.0319,0.0323,0.0451,0.0462,0.0474,0.0507,0.0526,0.0531,0.0534,0.0643,0.0643,0.0643,0,0,0,0,0,0,0.01,0.0112,0.02,0.0198,0.0205,0.023,0.0243,0.0288,0.0367,0.0311,0.0316,0.032,0.0432,0.0459,0.0468,0.0538,0.0521,0.0525,0.0528,0.053,0.0643,0.0643,0,0,0,0,0,0,0.0106,0.0116,0.0198,0.0203,0.0209,0.0291,0.0272,0.0351,0.0355,0.0307,0.0357,0.0357,0.0427,0.0438,0.0465,0.0529,0.0535,0.0521,0.0524,0.0526,0.0528,0,0,0,0,0,0,0,0.0111,0.0033,0.0151,0.0207,0.0212,0.0261,0.0263,0.0266,0.0355,0.0356,0.0356,0.0357,0.0495,0.05,0.0505,0.0523,0,0,0.052,0.0523,0,0,0,0,0,0,0,0,0.003,0.0032,0.0151,0.0152,0.0153,0.0261,0.0263,0.0265,0.0355,0.0356,0.0356,0.0357,0.0497,0.0501,0.0505,0,0,0,0,0,0,0,0,0,0,0,0,0,0,0,0.0151,0.0152,0,0.0261,0.0263,0.0265,0.0355,0.0356,0.0356,0.0357,0.0498,0.0501,0.0504,0,0,0,0,0,0,0,0,0,0,0,0,0,0,0,0,0,0,0,0,0,0,0,0,0,0,0,0,0,0,0,0,0,0,0,0,0,0,0,0,0,0,0,0,0,0,0,0,0,0,0,0,0,0,0,0,0,0,0,0,0,0,0,0,0,0,0,0,0]}]],[[{"header":{"parameterUnit":"kt","parameterCategory":2,"dx":1,"dy":1,"la1":30.253999710083008,"la2":30.299108505249023,"lo1":-89.0895004272461,"lo2":-89.04439544677734,"nx":28,"ny":28,"refTime":"2022-10-24T21:00:00:Z","depth":"2","parameterNumber":2,"parameterNumberName":"U-component_of_CURRENTS"},"data":[-0.1777,-0.1778,-0.1809,-0.1864,-0.195,-0.2007,-0.205,-0.2028,-0.2087,-0.2068,-0.2135,-0.2518,-0.2652,-0.2365,-0.2316,-0.2163,-0.2117,-0.2053,-0.2616,-0.2388,-0.2396,-0.2454,-0.2424,0,0,0,0,0,-0.1822,-0.1857,-0.1919,-0.2019,-0.2082,-0.2196,-0.2334,-0.2327,-0.2406,-0.2581,-0.2701,-0.2596,-0.2684,-0.2668,-0.2542,-0.2562,-0.2417,-0.2398,-0.2192,-0.2209,-0.2223,-0.2184,-0.2065,-0.2062,-0.2059,-0.2057,0,0,-0.1913,-0.1935,-0.2004,-0.2085,-0.219,-0.2316,-0.2351,-0.2501,-0.2631,-0.2741,-0.2938,-0.2984,-0.3022,-0.2979,-0.2881,-0.2761,-0.2915,-0.2733,-0.2728,-0.2727,-0.2724,-0.2741,-0.2744,-0.2746,-0.2748,-0.275,-0.2751,0,-0.1978,-0.2016,-0.2077,-0.2171,-0.2247,-0.2367,-0.248,-0.2563,-0.2733,-0.283,-0.2969,-0.3044,-0.3129,-0.3056,-0.3072,-0.2998,-0.2817,-0.2809,-0.2978,-0.2531,-0.2537,-0.2531,-0.2536,-0.2504,-0.2505,-0.2505,-0.2506,-0.2506,-0.2034,-0.206,-0.219,-0.2235,-0.2289,-0.238,-0.2449,-0.2582,-0.2664,-0.2839,-0.2885,-0.2969,-0.3036,-0.3061,-0.3026,-0.3009,-0.2962,-0.2824,-0.2746,-0.2907,-0.2903,-0.2899,-0.2894,-0.2518,-0.2516,-0.2515,-0.2514,0,-0.2055,-0.2131,-0.2202,-0.2318,-0.2356,-0.2398,-0.2546,-0.2602,-0.2687,-0.2794,-0.282,-0.2883,-0.2917,-0.2908,-0.2877,-0.2862,-0.2855,-0.2868,-0.2699,-0.2684,-0.2877,-0.2877,-0.2925,-0.2928,-0.2931,-0.2934,-0.2936,0,-0.212,-0.2162,-0.2278,-0.2314,-0.2378,-0.2459,-0.2528,-0.2579,-0.2671,-0.2752,-0.2765,-0.2822,-0.2787,-0.281,-0.2775,-0.2806,-0.276,-0.2789,-0.2791,-0.262,-0.2615,-0.2682,-0.2682,-0.2679,-0.2678,-0.2678,-0.2678,0,-0.2145,-0.225,-0.2302,-0.2339,-0.2461,-0.2487,-0.254,-0.2609,-0.2672,-0.2714,-0.2762,-0.2756,-0.2783,-0.2746,-0.2759,-0.2731,-0.275,-0.2704,-0.277,-0.2776,-0.262,-0.2615,-0.2678,-0.2678,-0.2678,-0.2678,-0.2678,0,-0.2209,-0.2274,-0.2335,-0.2442,-0.247,-0.2501,-0.258,-0.2621,-0.2677,-0.2703,-0.2718,-0.274,-0.2749,-0.2732,-0.2719,-0.2719,-0.2704,-0.2696,-0.2695,-0.2787,-0.2784,-0.262,-0.2612,-0.2697,-0.2697,-0.2697,-0.2697,0,-0.2226,-0.2304,-0.2366,-0.2423,-0.2474,-0.2542,-0.2574,-0.2624,-0.2659,-0.2697,-0.2697,-0.2723,-0.2711,-0.2725,-0.2708,-0.2717,-0.2702,-0.2702,-0.2687,-0.2687,-0.2764,-0.2794,-0.2608,-0.2615,-0.2697,-0.2697,-0.2697,0,-0.2245,-0.2366,-0.2371,-0.2423,-0.2509,-0.2543,-0.2573,-0.2631,-0.2664,-0.2678,-0.2708,-0.2699,-0.2715,-0.2713,-0.2718,-0.2706,-0.2704,-0.2701,-0.27,-0.27,-0.2686,-0.2782,-0.2792,-0.2682,-0.2682,-0.2681,-0.2697,0,-0.235,-0.2387,-0.2392,-0.248,-0.2513,-0.254,-0.2611,-0.2635,-0.2664,-0.2697,-0.2706,-0.2708,-0.2718,-0.271,-0.2715,-0.271,-0.2712,-0.2699,-0.2683,-0.269,-0.2698,-0.2698,-0.27,-0.27,-0.27,-0.27,0,0,-0.2363,-0.241,-0.2465,-0.2507,-0.254,-0.2602,-0.2634,-0.266,-0.2709,-0.2723,-0.2722,-0.2732,-0.272,-0.2717,-0.2727,-0.2717,-0.2714,-0.2696,-0.2692,-0.2691,-0.2691,-0.2698,-0.2698,-0.27,-0.27,-0.27,-0.27,0,-0.2416,-0.2449,-0.2466,-0.251,-0.2576,-0.2616,-0.2628,-0.2693,-0.2711,-0.2726,-0.2743,-0.2744,-0.272,-0.2723,-0.2717,-0.2718,-0.2693,-0.2707,-0.2707,-0.2692,-0.2692,-0.2691,-0.2698,-0.2698,-0.2699,-0.2699,-0.2699,0,-0.2473,-0.2522,-0.2527,-0.2592,-0.2624,-0.2663,-0.2696,-0.2718,-0.2742,-0.2745,-0.2755,-0.2753,-0.2742,-0.2727,-0.2716,-0.2709,-0.2679,-0.2679,-0.268,-0.2684,-0.2669,-0.2669,-0.2668,-0.2671,-0.267,-0.267,0,0,-0.2518,-0.2536,-0.2614,-0.2609,-0.2636,-0.2689,-0.2703,-0.2733,-0.2755,-0.276,-0.2758,-0.2753,-0.2744,-0.2728,-0.2717,-0.269,-0.2687,-0.2675,-0.2676,-0.2677,-0.2682,-0.2668,-0.2668,-0.267,-0.2669,-0.2669,0,0,-0.253,-0.2613,-0.2642,-0.2649,-0.2691,-0.2742,-0.2735,-0.2768,-0.2774,-0.2773,-0.2768,-0.2763,-0.2746,-0.2731,-0.2727,-0.2698,-0.2695,-0.2695,-0.2696,-0.2697,-0.2698,-0.2708,-0.2701,0,0,0,0,0,-0.2621,-0.2609,-0.2635,-0.2645,-0.2701,-0.2736,-0.2741,-0.2769,-0.2786,-0.2782,-0.279,-0.2764,-0.2737,-0.2733,-0.2723,-0.2702,-0.2661,-0.2662,-0.2664,-0.2659,-0.2661,-0.2663,0,0,0,0,0,0,-0.2626,-0.2638,-0.2635,-0.2688,-0.2701,-0.2736,-0.2759,-0.2766,-0.2786,-0.2788,-0.2769,-0.2763,-0.2751,-0.2735,-0.2727,-0.2708,-0.2704,-0.2661,-0.2663,-0.2664,-0.266,-0.2662,-0.2663,0,0,0,0,0,-0.2629,-0.264,-0.2724,-0.2687,-0.2699,-0.274,-0.2759,-0.2765,-0.2777,-0.2765,-0.2763,-0.2799,-0.2752,-0.2743,-0.273,-0.2712,-0.2709,-0.2707,-0.2662,-0.2663,-0.2664,-0.2661,0,0,0,0,0,0,-0.2632,-0.2637,-0.2726,-0.273,-0.269,-0.2738,-0.2746,-0.2764,-0.2751,-0.2752,-0.2792,-0.2794,-0.2752,-0.2745,-0.2739,-0.2716,-0.2714,-0.2711,-0.2709,-0.2663,-0.2664,-0.2664,0,0,0,0,0,0,-0.2632,-0.264,-0.2728,-0.273,-0.2734,-0.2736,-0.2743,-0.2711,-0.2748,-0.2777,-0.278,-0.2793,-0.2739,-0.2746,-0.2741,-0.2692,-0.2717,-0.2715,-0.2713,-0.2711,-0.2664,-0.2664,0,0,0,0,0,0,-0.2636,-0.2643,-0.2728,-0.2732,-0.2736,-0.2783,-0.2703,-0.2742,-0.2803,-0.2774,-0.2804,-0.2804,-0.2738,-0.2735,-0.2743,-0.2696,-0.2693,-0.2717,-0.2715,-0.2714,-0.2713,0,0,0,0,0,0,0,-0.2639,-0.2587,-0.2706,-0.2734,-0.2737,-0.2771,-0.2772,-0.2773,-0.2803,-0.2803,-0.2804,-0.2804,-0.2734,-0.2731,-0.2728,-0.2699,0,0,-0.2718,-0.2716,0,0,0,0,0,0,0,0,-0.2584,-0.2586,-0.2706,-0.2707,-0.2708,-0.2771,-0.2772,-0.2773,-0.2803,-0.2803,-0.2804,-0.2804,-0.2733,-0.2731,-0.2728,0,0,0,0,0,0,0,0,0,0,0,0,0,0,0,-0.2706,-0.2707,0,-0.2771,-0.2772,-0.2772,-0.2803,-0.2803,-0.2804,-0.2804,-0.2732,-0.273,-0.2728,0,0,0,0,0,0,0,0,0,0,0,0,0,0,0,0,0,0,0,0,0,0,0,0,0,0,0,0,0,0,0,0,0,0,0,0,0,0,0,0,0,0,0,0,0,0,0,0,0,0,0,0,0,0,0,0,0,0,0,0,0,0,0,0,0,0,0,0,0]}],[{"header":{"parameterUnit":"kt","parameterCategory":2,"dx":1,"dy":1,"la1":30.253999710083008,"la2":30.299108505249023,"lo1":-89.0895004272461,"lo2":-89.04439544677734,"nx":28,"ny":28,"refTime":"2022-10-24T21:00:00:Z","depth":"2","parameterNumber":3,"parameterNumberName":"V-component_of_CURRENTS"},"data":[-0.096,-0.107,-0.1123,-0.1235,-0.1259,-0.1262,-0.1256,-0.1375,-0.1353,-0.1406,-0.1278,-0.09,-0.0241,0.0099,0.0541,0.0808,0.0791,0.0804,0.0822,0.0609,0.0599,0.092,0.0862,0,0,0,0,0,-0.0922,-0.0987,-0.1073,-0.1132,-0.118,-0.1144,-0.1119,-0.1147,-0.1197,-0.1114,-0.1022,-0.0614,-0.015,0.0296,0.0799,0.113,0.1079,0.1141,0.1015,0.1008,0.1002,0.0972,0.1068,0.1069,0.107,0.1071,0,0,-0.0851,-0.0907,-0.0958,-0.1029,-0.1056,-0.1046,-0.1049,-0.1024,-0.1003,-0.0942,-0.0722,-0.0562,-0.0112,0.0409,0.0741,0.1038,0.1032,0.1068,0.106,0.1053,0.103,0.0999,0.1139,0.114,0.1141,0.1141,0.1142,0,-0.0791,-0.0796,-0.083,-0.0906,-0.0926,-0.092,-0.0888,-0.0865,-0.072,-0.0689,-0.0567,-0.0444,-0.001,0.0303,0.0708,0.0847,0.0925,0.0991,0.0987,0.083,0.0789,0.0809,0.0798,0.0896,0.0896,0.0895,0.0895,0.0895,-0.0706,-0.0734,-0.0754,-0.0787,-0.0781,-0.0782,-0.0774,-0.0668,-0.0623,-0.0457,-0.0425,-0.0214,-0.0068,0.0311,0.0602,0.0874,0.0854,0.0966,0.0948,0.0906,0.0931,0.0917,0.0904,0.0889,0.089,0.0891,0.0891,0,-0.0662,-0.0647,-0.0681,-0.066,-0.0657,-0.0674,-0.0611,-0.0588,-0.0483,-0.0412,-0.0377,-0.0182,0.0019,0.0229,0.0461,0.0602,0.0787,0.0856,0.0744,0.0772,0.0892,0.0883,0.1027,0.1031,0.1033,0.1036,0.1038,0,-0.0581,-0.0597,-0.0577,-0.059,-0.0614,-0.0543,-0.0528,-0.0471,-0.037,-0.032,-0.018,-0.0111,0.0101,0.0249,0.0383,0.06,0.0581,0.0735,0.0776,0.0695,0.0694,0.0674,0.067,0.0702,0.0702,0.0701,0.07,0,-0.0516,-0.0504,-0.0531,-0.0521,-0.0474,-0.0461,-0.0428,-0.033,-0.0289,-0.0176,-0.0132,0.0009,0.0089,0.022,0.0392,0.0381,0.058,0.059,0.0728,0.0733,0.0722,0.0724,0.0699,0.0699,0.0699,0.0698,0.0698,0,-0.0432,-0.0435,-0.046,-0.0428,-0.0418,-0.0405,-0.034,-0.0301,-0.0187,-0.0132,-0.0042,0.0047,0.0154,0.0188,0.0368,0.0329,0.0417,0.0494,0.0501,0.0597,0.063,0.0646,0.0671,0.0578,0.0577,0.0576,0.0574,0,-0.0386,-0.04,-0.035,-0.0358,-0.0361,-0.028,-0.0249,-0.0185,-0.0117,-0.0056,0.0047,0.0115,0.0168,0.0205,0.0267,0.0382,0.0428,0.0371,0.0538,0.0543,0.0598,0.0628,0.0554,0.0649,0.0558,0.056,0.0561,0,-0.0339,-0.0297,-0.0294,-0.0289,-0.0221,-0.0208,-0.017,-0.0111,-0.0082,-0.0009,0.0036,0.0134,0.0187,0.0234,0.03,0.0352,0.0404,0.039,0.0395,0.0426,0.053,0.0597,0.0614,0.0438,0.0439,0.0441,0.0548,0,-0.0278,-0.0261,-0.0262,-0.0213,-0.0186,-0.0179,-0.011,-0.0077,-0.003,0.0023,0.0096,0.0183,0.0261,0.0283,0.0329,0.0381,0.04,0.0427,0.0449,0.0443,0.049,0.05,0.0403,0.0405,0.0406,0.0407,0,0,-0.0238,-0.0218,-0.0154,-0.0143,-0.0126,-0.0056,-0.0056,-0.0009,0.0062,0.0093,0.0111,0.024,0.0298,0.0368,0.037,0.0398,0.0435,0.0396,0.044,0.0443,0.0446,0.0491,0.0499,0.0408,0.0409,0.0409,0.0409,0,-0.0206,-0.0159,-0.0154,-0.0122,-0.0075,-0.0034,-0.0032,0.0031,0.0067,0.0111,0.0178,0.0235,0.0309,0.0369,0.0407,0.0408,0.046,0.0417,0.0383,0.0446,0.0448,0.045,0.0493,0.05,0.0412,0.0412,0.0412,0,-0.016,-0.0118,-0.0106,-0.0049,-0.0014,0.0004,0.0054,0.0076,0.0096,0.0178,0.022,0.0279,0.0353,0.0396,0.0418,0.0428,0.0484,0.0459,0.0455,0.0457,0.0524,0.0525,0.0527,0.0511,0.0511,0.0511,0,0,-0.0133,-0.0109,-0.0047,-0.0038,-0.002,0.0039,0.0058,0.0093,0.0147,0.0173,0.023,0.0291,0.0347,0.0376,0.0429,0.0461,0.0504,0.0468,0.0463,0.0459,0.0459,0.0524,0.0525,0.0511,0.0511,0.0511,0,0,-0.0123,-0.0053,-0.0025,-0.0007,0.0031,0.0094,0.01,0.0135,0.0191,0.0199,0.0273,0.0291,0.0337,0.0375,0.0369,0.043,0.0453,0.0456,0.0397,0.0392,0.0388,0.0374,0.0414,0,0,0,0,0,-0.0062,-0.0063,-0.0038,-0.0028,0.0047,0.0081,0.0093,0.0143,0.0164,0.0172,0.0235,0.0267,0.0389,0.0385,0.04,0.0397,0.0512,0.0511,0.0511,0.0445,0.0439,0.0434,0,0,0,0,0,0,-0.0057,-0.0045,-0.0039,0.0022,0.0039,0.0082,0.0125,0.014,0.0165,0.0172,0.0255,0.0269,0.032,0.038,0.0393,0.0389,0.041,0.0512,0.0511,0.0511,0.0443,0.0438,0.0434,0,0,0,0,0,-0.0054,-0.0044,0.0063,0.0023,0.0038,0.0102,0.0126,0.0139,0.0166,0.0238,0.0254,0.02,0.0319,0.0334,0.0388,0.0382,0.0401,0.0406,0.0511,0.0511,0.0511,0.0441,0,0,0,0,0,0,-0.0051,-0.0022,0.0067,0.0073,0.0025,0.0101,0.0115,0.0137,0.0233,0.0246,0.0187,0.0191,0.0317,0.033,0.0341,0.0376,0.0394,0.0399,0.0402,0.0511,0.0511,0.0511,0,0,0,0,0,0,-0.0028,-0.0017,0.0071,0.007,0.0077,0.01,0.0112,0.0158,0.0234,0.0178,0.0183,0.0187,0.0301,0.0326,0.0336,0.0405,0.0389,0.0393,0.0396,0.0398,0.0511,0.0511,0,0,0,0,0,0,-0.0022,-0.0013,0.0069,0.0074,0.0081,0.0159,0.0142,0.022,0.022,0.0173,0.0222,0.0223,0.0296,0.0307,0.0332,0.0396,0.0403,0.0389,0.0392,0.0394,0.0396,0,0,0,0,0,0,0,-0.0018,-0.0093,0.0024,0.0078,0.0084,0.013,0.0132,0.0135,0.0221,0.0221,0.0222,0.0223,0.0363,0.0368,0.0373,0.039,0,0,0.0389,0.0391,0,0,0,0,0,0,0,0,-0.0096,-0.0094,0.0024,0.0025,0.0026,0.013,0.0132,0.0134,0.0221,0.0221,0.0222,0.0222,0.0365,0.0369,0.0373,0,0,0,0,0,0,0,0,0,0,0,0,0,0,0,0.0024,0.0025,0,0.0131,0.0132,0.0134,0.0221,0.0221,0.0222,0.0222,0.0366,0.0369,0.0372,0,0,0,0,0,0,0,0,0,0,0,0,0,0,0,0,0,0,0,0,0,0,0,0,0,0,0,0,0,0,0,0,0,0,0,0,0,0,0,0,0,0,0,0,0,0,0,0,0,0,0,0,0,0,0,0,0,0,0,0,0,0,0,0,0,0,0,0,0]}]],[[{"header":{"parameterUnit":"kt","parameterCategory":2,"dx":1,"dy":1,"la1":30.253999710083008,"la2":30.299108505249023,"lo1":-89.0895004272461,"lo2":-89.04439544677734,"nx":28,"ny":28,"refTime":"2022-10-24T21:00:00:Z","depth":"4","parameterNumber":2,"parameterNumberName":"U-component_of_CURRENTS"},"data":[-0.1162,-0.1209,-0.1229,-0.108,-0.1033,-0.0966,-0.0996,-0.1113,-0.115,-0.1426,-0.1513,-0.1774,-0.1906,-0.2034,-0.2072,-0.2095,-0.1995,-0.2323,-0.2319,-0.2219,-0.2224,-0.2228,-0.22,0,0,0,0,0,-0.1211,-0.1222,-0.1273,-0.1281,-0.1285,-0.1289,-0.1348,-0.1405,-0.1588,-0.1634,-0.178,-0.1889,-0.2033,-0.2169,-0.2106,-0.2255,-0.221,-0.217,-0.2071,-0.2222,-0.2227,-0.2199,0,0,0,0,0,0,-0.1277,-0.1309,-0.1402,-0.147,-0.1508,-0.1428,-0.15,-0.1533,-0.1594,-0.1868,-0.1934,-0.2173,-0.2356,-0.2374,-0.2368,-0.2333,-0.2278,-0.2172,-0.218,-0.2185,-0.2154,-0.2146,-0.2089,0,0,0,0,0,-0.1336,-0.1407,-0.1485,-0.158,-0.1634,-0.166,-0.1709,-0.172,-0.1851,-0.2037,-0.2175,-0.228,-0.2373,-0.2401,-0.24,-0.2353,-0.2352,-0.2333,-0.2334,-0.2258,-0.226,-0.2246,-0.2248,-0.2248,-0.2248,-0.2249,-0.2249,0,-0.1403,-0.1444,-0.162,-0.1666,-0.1738,-0.1836,-0.1865,-0.1996,-0.1996,-0.2242,-0.2227,-0.2397,-0.2468,-0.2446,-0.2469,-0.2416,-0.2391,-0.2348,-0.2268,-0.2269,-0.2253,-0.2253,-0.2253,-0.2253,-0.2253,-0.2253,-0.2252,0,-0.1435,-0.1531,-0.1627,-0.1779,-0.1828,-0.1886,-0.2014,-0.2036,-0.2168,-0.2232,-0.2265,-0.2411,-0.2468,-0.2484,-0.2478,-0.2405,-0.2371,-0.2352,-0.2426,-0.2412,-0.2262,-0.226,-0.226,-0.2259,-0.2257,-0.2256,-0.2255,0,-0.1511,-0.1574,-0.172,-0.1762,-0.1851,-0.1944,-0.2024,-0.2099,-0.2183,-0.2229,-0.2324,-0.2382,-0.2395,-0.2427,-0.24,-0.2371,-0.2402,-0.2305,-0.2289,-0.2326,-0.2325,-0.225,-0.2239,-0.2343,-0.2343,-0.2343,-0.2342,0,-0.1541,-0.1665,-0.1736,-0.1778,-0.1917,-0.1965,-0.2032,-0.2124,-0.2173,-0.2261,-0.2314,-0.234,-0.2382,-0.2361,-0.2383,-0.2359,-0.2391,-0.2346,-0.2292,-0.2289,-0.2245,-0.2234,-0.2342,-0.2342,-0.2342,-0.2342,-0.2342,0,-0.1601,-0.1671,-0.1752,-0.1875,-0.1905,-0.1958,-0.2066,-0.212,-0.22,-0.2243,-0.2281,-0.2305,-0.2345,-0.2332,-0.2342,-0.2337,-0.2329,-0.2323,-0.2323,-0.2201,-0.2165,-0.22,-0.231,-0.231,-0.2309,-0.2309,-0.2309,0,-0.1613,-0.1697,-0.1758,-0.1842,-0.1896,-0.1973,-0.2028,-0.2096,-0.2153,-0.221,-0.2234,-0.2272,-0.2267,-0.2291,-0.2303,-0.2299,-0.2312,-0.2303,-0.2212,-0.2209,-0.217,-0.2254,-0.2287,-0.2305,-0.2305,-0.2306,-0.2306,0,-0.1615,-0.1738,-0.1749,-0.1801,-0.1897,-0.1933,-0.2,-0.2065,-0.2109,-0.2164,-0.2203,-0.2236,-0.2249,-0.2225,-0.2224,-0.2231,-0.2305,-0.2195,-0.219,-0.2214,-0.2303,-0.2256,-0.2253,-0.2285,-0.2285,-0.2285,-0.2303,0,-0.1673,-0.1734,-0.1755,-0.1823,-0.187,-0.1916,-0.1974,-0.203,-0.2074,-0.2088,-0.2147,-0.2149,-0.2138,-0.2161,-0.2138,-0.2175,-0.2147,-0.2109,-0.2035,-0.2108,-0.2106,-0.2109,-0.2024,-0.2021,-0.2018,-0.2016,0,0,-0.166,-0.171,-0.1755,-0.1797,-0.1832,-0.1884,-0.1922,-0.1948,-0.199,-0.2009,-0.2015,-0.2026,-0.2021,-0.2029,-0.2055,-0.2052,-0.2033,-0.2005,-0.2071,-0.2078,-0.2084,-0.2086,-0.2092,-0.2011,-0.201,-0.2009,-0.2009,0,-0.1657,-0.1719,-0.1743,-0.1783,-0.1842,-0.1851,-0.1889,-0.1916,-0.1932,-0.1985,-0.1952,-0.1989,-0.1977,-0.195,-0.193,-0.2017,-0.1948,-0.2008,-0.2054,-0.2049,-0.206,-0.2069,-0.2074,-0.2081,-0.2002,-0.2002,-0.2003,0,-0.1655,-0.1688,-0.1702,-0.1766,-0.1777,-0.181,-0.1796,-0.1836,-0.1862,-0.1815,-0.1857,-0.1857,-0.1805,-0.183,-0.1844,-0.1799,-0.186,-0.1841,-0.1853,-0.1819,-0.1808,-0.1821,-0.1832,-0.1688,-0.1688,-0.1687,0,0,-0.1654,-0.1685,-0.1725,-0.1762,-0.1788,-0.1791,-0.1808,-0.1807,-0.181,-0.1814,-0.1807,-0.1785,-0.178,-0.1782,-0.1765,-0.1798,-0.1753,-0.181,-0.1825,-0.1837,-0.1812,-0.1803,-0.1816,-0.1686,-0.1686,-0.1686,0,0,-0.1626,-0.1663,-0.1681,-0.1731,-0.1761,-0.1735,-0.1755,-0.1765,-0.1774,-0.1776,-0.1731,-0.1726,-0.1778,-0.1727,-0.1717,-0.1733,-0.1661,-0.1664,-0.1788,-0.1806,-0.182,-0.1794,-0.1623,0,0,0,0,0,-0.1626,-0.1664,-0.1683,-0.1694,-0.1717,-0.174,-0.1739,-0.1721,-0.1721,-0.1744,-0.1735,-0.1687,-0.169,-0.168,-0.1679,-0.1718,-0.1669,-0.1672,-0.1675,-0.1842,-0.1861,-0.1877,0,0,0,0,0,0,-0.163,-0.1643,-0.1681,-0.1663,-0.1669,-0.1737,-0.1679,-0.1673,-0.1717,-0.1713,-0.1689,-0.1684,-0.1628,-0.1677,-0.1677,-0.1715,-0.1623,-0.167,-0.1673,-0.1675,-0.1848,-0.1864,-0.1877,0,0,0,0,0,-0.1633,-0.1644,-0.1696,-0.166,-0.1666,-0.1657,-0.1678,-0.1672,-0.1703,-0.1654,-0.1649,-0.17,-0.1628,-0.1628,-0.1676,-0.1717,-0.1623,-0.1623,-0.1672,-0.1674,-0.1676,-0.1856,0,0,0,0,0,0,-0.1636,-0.1609,-0.1695,-0.1695,-0.1658,-0.1653,-0.1653,-0.1672,-0.164,-0.1638,-0.1657,-0.1654,-0.1629,-0.1628,-0.1628,-0.1721,-0.1623,-0.1623,-0.1623,-0.1674,-0.1675,-0.1677,0,0,0,0,0,0,-0.1605,-0.1609,-0.1694,-0.1693,-0.1692,-0.1649,-0.165,-0.1654,-0.164,-0.1641,-0.164,-0.1657,-0.1646,-0.1629,-0.1628,-0.1634,-0.1623,-0.1623,-0.1623,-0.1623,-0.1675,-0.1676,0,0,0,0,0,0,-0.1606,-0.161,-0.1692,-0.1691,-0.169,-0.1677,-0.1651,-0.1679,-0.1634,-0.1642,-0.1632,-0.1632,-0.1649,-0.1647,-0.1629,-0.1634,-0.1634,-0.1623,-0.1623,-0.1623,-0.1623,0,0,0,0,0,0,0,-0.1607,-0.1594,-0.1711,-0.1689,-0.1688,-0.1698,-0.1697,-0.1695,-0.1634,-0.1633,-0.1633,-0.1632,-0.1622,-0.1622,-0.1622,-0.1635,0,0,-0.1623,-0.1623,0,0,0,0,0,0,0,0,-0.1592,-0.1594,-0.1712,-0.1712,-0.1713,-0.1698,-0.1697,-0.1695,-0.1634,-0.1633,-0.1633,-0.1632,-0.1622,-0.1622,-0.1622,0,0,0,0,0,0,0,0,0,0,0,0,0,0,0,-0.1712,-0.1712,0,-0.1698,-0.1697,-0.1696,-0.1634,-0.1633,-0.1633,-0.1632,-0.1622,-0.1622,-0.1622,0,0,0,0,0,0,0,0,0,0,0,0,0,0,0,0,0,0,0,0,0,0,0,0,0,0,0,0,0,0,0,0,0,0,0,0,0,0,0,0,0,0,0,0,0,0,0,0,0,0,0,0,0,0,0,0,0,0,0,0,0,0,0,0,0,0,0,0,0]}],[{"header":{"parameterUnit":"kt","parameterCategory":2,"dx":1,"dy":1,"la1":30.253999710083008,"la2":30.299108505249023,"lo1":-89.0895004272461,"lo2":-89.04439544677734,"nx":28,"ny":28,"refTime":"2022-10-24T21:00:00:Z","depth":"4","parameterNumber":3,"parameterNumberName":"V-component_of_CURRENTS"},"data":[-0.0874,-0.0957,-0.0992,-0.1131,-0.1207,-0.1318,-0.1365,-0.1347,-0.1275,-0.1181,-0.0937,-0.0793,-0.0371,-0.0528,0.0032,0.0104,0.0173,0.0592,0.0596,0.0701,0.0699,0.0698,0.0637,0,0,0,0,0,-0.0844,-0.0903,-0.0984,-0.1068,-0.1162,-0.1214,-0.1278,-0.1271,-0.1232,-0.1155,-0.1054,-0.0818,-0.0408,-0.0155,0.0029,0.0158,0.0419,0.0379,0.0458,0.07,0.0698,0.0639,0,0,0,0,0,0,-0.0806,-0.085,-0.0903,-0.0975,-0.1063,-0.1155,-0.116,-0.1154,-0.1139,-0.101,-0.0944,-0.0611,-0.0395,-0.0018,0.0178,0.0371,0.0413,0.0451,0.0462,0.0463,0.038,0.0293,0.032,0,0,0,0,0,-0.0758,-0.0775,-0.0803,-0.0892,-0.0946,-0.1003,-0.1041,-0.1068,-0.1012,-0.0942,-0.0775,-0.0538,-0.0288,0.0036,0.0252,0.0436,0.06,0.0654,0.0654,0.0639,0.0597,0.0614,0.0605,0.0689,0.0689,0.0689,0.0689,0,-0.07,-0.0723,-0.0755,-0.0796,-0.0796,-0.0818,-0.0849,-0.0789,-0.0811,-0.0678,-0.0693,-0.0459,-0.0304,0.0047,0.0281,0.0542,0.0574,0.0648,0.0631,0.0592,0.0612,0.0603,0.0594,0.0687,0.0687,0.0687,0.0687,0,-0.0672,-0.0661,-0.0691,-0.0678,-0.0683,-0.0702,-0.0694,-0.0704,-0.0614,-0.0612,-0.0584,-0.0352,-0.0149,0.0056,0.0289,0.0392,0.0553,0.0602,0.0519,0.0543,0.0596,0.0588,0.0684,0.0685,0.0685,0.0686,0.0686,0,-0.061,-0.0626,-0.0612,-0.0621,-0.0649,-0.0586,-0.0593,-0.0539,-0.0479,-0.0481,-0.0306,-0.025,-0.0029,0.0107,0.0241,0.0413,0.0429,0.0517,0.0547,0.0492,0.0485,0.0486,0.0477,0.0556,0.0555,0.0554,0.0554,0,-0.0563,-0.0553,-0.0572,-0.0562,-0.0521,-0.0514,-0.0487,-0.0407,-0.0392,-0.028,-0.0255,-0.011,-0.0038,0.0091,0.0256,0.0251,0.0434,0.0449,0.0518,0.0518,0.0479,0.0471,0.0553,0.0553,0.0553,0.0552,0.0552,0,-0.0495,-0.0494,-0.0511,-0.0483,-0.0474,-0.0466,-0.0412,-0.0378,-0.0281,-0.0233,-0.0149,-0.007,0.0036,0.0073,0.0245,0.021,0.0293,0.0366,0.0372,0.0351,0.0371,0.0341,0.044,0.0438,0.0437,0.0436,0.0435,0,-0.0456,-0.0464,-0.042,-0.0425,-0.0422,-0.0352,-0.0327,-0.0269,-0.0208,-0.0156,-0.0056,-0.0001,0.0057,0.009,0.0157,0.0257,0.0307,0.0256,0.0358,0.0361,0.0323,0.0411,0.0324,0.0418,0.042,0.0422,0.0423,0,-0.0415,-0.0372,-0.0372,-0.0365,-0.0304,-0.0291,-0.0256,-0.0202,-0.0183,-0.0107,-0.0072,0.0026,0.0073,0.0095,0.0152,0.0202,0.0285,0.0218,0.022,0.0224,0.0398,0.0391,0.0401,0.0316,0.0318,0.0319,0.0411,0,-0.0354,-0.0339,-0.034,-0.0302,-0.0276,-0.0266,-0.0206,-0.0174,-0.0133,-0.0094,-0.002,0.005,0.0095,0.0128,0.0151,0.0209,0.0209,0.0223,0.0165,0.023,0.0265,0.0275,0.0155,0.0154,0.0154,0.0153,0,0,-0.0321,-0.0305,-0.0253,-0.0243,-0.0227,-0.0168,-0.0167,-0.0134,-0.0082,-0.0057,-0.0049,0.0048,0.0069,0.0119,0.0146,0.0173,0.0194,0.0092,0.0208,0.0214,0.022,0.0255,0.0265,0.0152,0.0152,0.0152,0.0152,0,-0.0295,-0.0254,-0.0254,-0.0225,-0.0185,-0.016,-0.0149,-0.0108,-0.0093,-0.0047,-0.002,0.0036,0.0053,0.0076,0.0088,0.0164,0.0123,0.0164,0.0144,0.0202,0.0209,0.0215,0.0251,0.026,0.015,0.015,0.015,0,-0.0257,-0.0225,-0.022,-0.0171,-0.0153,-0.014,-0.0118,-0.0104,-0.0092,-0.0075,-0.0058,-0.0017,0.0002,0.003,0.0041,0.0012,0.0065,0.0035,0.004,0.0004,0.0061,0.007,0.0078,-0.0032,-0.0033,-0.0034,0,0,-0.0237,-0.0221,-0.0172,-0.0163,-0.0147,-0.0118,-0.0106,-0.01,-0.0074,-0.0068,-0.0065,-0.005,-0.0021,-0.0026,-0.0008,0.0013,0.0017,0.001,0.0019,0.0026,-0.0005,0.0053,0.0062,-0.0037,-0.0037,-0.0037,0,0,-0.0241,-0.0193,-0.0173,-0.0158,-0.0128,-0.0107,-0.011,-0.0091,-0.0069,-0.0075,-0.0083,-0.0085,-0.0051,-0.0063,-0.0097,-0.006,-0.009,-0.0083,-0.0078,-0.0068,-0.0059,-0.0105,-0.0178,0,0,0,0,0,-0.0194,-0.0191,-0.0173,-0.0164,-0.0127,-0.0101,-0.0098,-0.0102,-0.0102,-0.0101,-0.0075,-0.0132,-0.0077,-0.0108,-0.0111,-0.012,-0.0077,-0.007,-0.0063,-0.0048,-0.0037,-0.0027,0,0,0,0,0,0,-0.019,-0.0181,-0.0173,-0.0148,-0.0139,-0.0102,-0.0119,-0.0119,-0.0104,-0.0108,-0.0127,-0.0133,-0.0156,-0.0112,-0.0113,-0.0121,-0.0177,-0.0074,-0.0068,-0.0063,-0.0045,-0.0035,-0.0027,0,0,0,0,0,-0.0188,-0.018,-0.0121,-0.0149,-0.0141,-0.0135,-0.0121,-0.0122,-0.0114,-0.0132,-0.0138,-0.0118,-0.0154,-0.0157,-0.0113,-0.012,-0.0177,-0.0177,-0.007,-0.0066,-0.0061,-0.004,0,0,0,0,0,0,-0.0186,-0.0186,-0.0119,-0.0117,-0.0164,-0.0139,-0.0136,-0.0123,-0.0141,-0.0144,-0.0126,-0.0129,-0.0153,-0.0155,-0.0157,-0.0118,-0.0177,-0.0177,-0.0177,-0.0067,-0.0063,-0.006,0,0,0,0,0,0,-0.019,-0.0184,-0.0118,-0.0137,-0.0137,-0.0142,-0.0139,-0.0135,-0.0143,-0.0136,-0.0138,-0.0128,-0.0161,-0.0154,-0.0156,-0.0148,-0.0177,-0.0177,-0.0177,-0.0177,-0.0064,-0.0061,0,0,0,0,0,0,-0.0188,-0.0183,-0.0138,-0.0138,-0.0138,-0.0114,-0.0141,-0.0112,-0.0129,-0.0137,-0.0133,-0.0135,-0.0159,-0.0161,-0.0154,-0.0146,-0.0148,-0.0177,-0.0177,-0.0177,-0.0177,0,0,0,0,0,0,0,-0.0186,-0.0219,-0.0129,-0.0139,-0.0139,-0.0093,-0.0093,-0.0093,-0.0129,-0.0131,-0.0132,-0.0134,-0.0176,-0.0176,-0.0176,-0.0144,0,0,-0.0177,-0.0177,0,0,0,0,0,0,0,0,-0.0221,-0.0219,-0.0129,-0.0128,-0.0127,-0.0093,-0.0093,-0.0093,-0.0129,-0.0131,-0.0132,-0.0133,-0.0176,-0.0176,-0.0176,0,0,0,0,0,0,0,0,0,0,0,0,0,0,0,-0.0129,-0.0128,0,-0.0093,-0.0093,-0.0093,-0.013,-0.0131,-0.0132,-0.0133,-0.0176,-0.0176,-0.0176,0,0,0,0,0,0,0,0,0,0,0,0,0,0,0,0,0,0,0,0,0,0,0,0,0,0,0,0,0,0,0,0,0,0,0,0,0,0,0,0,0,0,0,0,0,0,0,0,0,0,0,0,0,0,0,0,0,0,0,0,0,0,0,0,0,0,0,0,0]}]]]